Content
SEND FEEDBACK

Daily
Averages
Monthly
Summary
United States of America

MOUNT SHASTA, CALIFORNIA


Home > North America > United States > California
Elevation: 1121 meters     Latitude: 41 19N     Longitude: 122 19W

WEATHER
 
SELECT A DAY
Number of Records: 231,336;   Date Range: 1/1/95 - 7/26/14
 
SHARE

PRINT THIS DATA

[ ← Previous Day ]
WEATHER ALMANAC - 16 FEBRUARY, 2014
[ Next Day → ]
[ °F ]   °C
Weather ElementAverageHighLow
Temperature3.1 °C9.4 °C (2:56 pm)-1.7 °C (6:56 am)
Dewpoint-1.9 °C0 °C (1:56 am)-3.3 °C (5:56 am)
Humidity72 %89 % (6:56 am)48 % (2:56 pm)
Barometer1022 hPa1024.4 hPa (6:56 pm)1015.6 hPa (1:56 am)
Wind Speed2.3 km/h11.1 km/h (3:56 pm)
Weather ElementAverage
Visibility15.1 km
Wind DirectionNNE (30 °)

Weather ElementTotal
Precipitation---
Heating Degree Days14.5 (Base 18.3)
Averaged from 23 records on 16 February, 2014
WEATHER CONDITIONS BREAKOUT
WIND DIRECTION BREAKOUT
WEATHER BY HOUR - 16 FEBRUARY, 2014
[ °F ]   °C
Local TimeTemperatureDewpointHumidityBarometerVisibilityWind DirectionWind SpeedGust SpeedPrecipitationEventsConditions
1:56 AM2.8 °C0 °C82 %1015.6 hPa16.1 kmCalmOvercast
2:56 AM1.1 °C-1.1 °C85 %1016.3 hPa14.5 kmNW (310°)5.6 km/hPartly Cloudy
3:56 AM0.6 °C-1.7 °C85 %1017.3 hPa16.1 kmCalmClear
4:56 AM0 °C-2.2 °C85 %1017.6 hPa16.1 kmNE (50°)5.6 km/hClear
5:56 AM-1.1 °C-3.3 °C85 %1019.3 hPa14.5 kmENE (60°)5.6 km/hClear
6:56 AM-1.7 °C-3.3 °C89 %1020.3 hPa12.9 kmCalmClear
7:56 AM-1.1 °C-3.3 °C85 %1021.3 hPa9.7 kmCalmClear
8:56 AM1.1 °C-1.1 °C85 %1022.4 hPa16.1 kmCalmClear
9:56 AM3.9 °C-0.6 °C73 %1022.7 hPa16.1 kmCalmClear
10:56 AM6.1 °C-1.1 °C60 %1023.4 hPa16.1 kmVariable7.4 km/hClear
11:56 AM7.8 °C-1.1 °C54 %1023.4 hPa16.1 kmVariable5.6 km/hPartly Cloudy
12:56 PM7.8 °C-1.1 °C54 %1023.4 hPa16.1 kmNorthMostly Cloudy
1:56 PM8.9 °C-1.1 °C50 %1023 hPa16.1 kmSE (130°)9.3 km/hScattered Clouds
2:56 PM9.4 °C-1.1 °C48 %1023.4 hPa16.1 kmCalmPartly Cloudy
3:56 PM8.3 °C-1.7 °C50 %1023.7 hPa16.1 kmSE (140°)11.1 km/hClear
4:56 PM7.2 °C-1.7 °C53 %1024 hPa16.1 kmCalmClear
5:56 PM5.6 °C-1.7 °C60 %1024 hPa16.1 kmCalmClear
6:56 PM4.4 °C-2.2 °C63 %1024.4 hPa16.1 kmCalmClear
7:56 PM1.1 °C-2.2 °C79 %1024.4 hPa16.1 kmCalmClear
8:56 PM0.6 °C-2.8 °C78 %1024.4 hPa16.1 kmCalmClear
9:56 PM0 °C-2.8 °C82 %1023.7 hPa14.5 kmCalmClear
10:56 PM-1.1 °C-3.3 °C85 %1023.4 hPa8 kmCalmClear
11:56 PM-1.1 °C-3.3 °C85 %1023 hPa16.1 kmCalmClear
Hourly data recorded from KMHS, located 0 kilometers away from Mount Shasta, California







STORIES FROM OUR PARTNERS